STARLINK-11333, 62273

Orbit data source: Space-Track

STARLINK-11333, 62273 is a payload satellite owned by SpaceX/Seattle (US) in LEO that was launched on Sun, 08 Dec 2024 UTC via an FALCON 9 launch vehicle from the Air Force Eastern Test Range (AFETR). Payload-class satellites include a variety of spacecraft equipped with specific instruments for various scientific and technological missions. These include communications satellites like Starlink; space stations such as the ISS; scientific satellites like the Hubble; Earth observation satellites from companies like Planet Labs, Umbra, and HawkEye 360; GPS; miniature CubeSats for education and research; and military/defense satellites.

Loading next visibility...
Identifier
62273, 2024-237G
Orbit
LEO
Country
Flag of USUS
Related business
Manufacturer
SpaceX/Seattle
Mission
Operational Commercial Communications
Bus & Motor
STARLINK V2MD, Unknown motor
Mass
960 kg wet, ~910 kg dry
Launch date (UTC)
2024-12-08 (2 years ago)
Launch vehicle
FALCON 9
Launch site
Air Force Eastern Test Range (AFETR)
Object type
Payload
Rocket body
Debris
Shape & HBR
Box + 2 Pan, 18.1 m
Radar Cross Section
36.964 m², Large (>1 m²)

Expand to show TLE details & history
Last TLE update: 20 hours ago

TLE from 20 hours ago
0 STARLINK-11333
1 62273U 24237G   26171.03316950  .00213597  00000-0  16140-2 0  9993
2 62273  43.0004 160.1295 0003786 286.2650  73.7801 15.71007104 89144
Epoch: 2026-06-20T00:47Z
TLE epoch observation values (Epoch: 2026-06-20T00:47:45.844Z)
Latitude
-0.00004°
Longitude
-120.06516°
Altitude
355.078 km
Speed
7.698 km/s
True Right ascension
10h 40m 31s
True Declination
0° 00' 00"
Sunlit
Object was in daylight at epoch
Visualization orbit readout
Latitude
Unknown
Longitude
Unknown
Altitude
Unknown
Speed
Unknown
Apparent Right ascension
Unknown
Apparent Declination
Unknown
Sunlit
N/A
Visualization observer readout
Local Sidereal Time
07:23:35
Azimuth
Unknown
Elevation
Unknown
Doppler factor
Unknown
Orbital elements
Apogee altitude
360.549 km
Perigee altitude
355.449 km
Semi-major axis
6,736.136 km
Eccentricity
0.00038
Inclination
43.0004°
RAAN
160.1295°
Arg. of periapsis
286.265°
True anomaly
73.82176°
Mean anomaly
73.7801°
Eccentric anomaly
73.80093°
Mean motion
3.92579 °/min
Orbital period
91.7 mins
BSTAR
0.001614
Loading maneuver chart data...
Computing Atmospheric mass density...
Loading historical data...
Loading historical data...
Loading historical data...
Loading historical data...
Loading historical data...
Loading historical data...
Loading historical data...

Documentation

Showing up to 5 results
|